Voltar ao catálogo

ATLAS 5 CENTAUR DEB

LostHEO
NORAD 57588·DEBRIS·🇺🇸 United States

Lançado Oct 17, 2018 de Cape Canaveral Space Force Station

Loading…

Próximas Passagens (próximas 24 horas)

TLE

ObsoletoSource: Space-Track

Época: Jul 27, 2026, 03:19 UTC

1 57588U 18079HP  26208.13885941 -.00000098  00000-0  00000-0 0  9993
2 57588  13.2789  20.7540 4807103   3.1013 359.0205  1.88908979 22663

Acompanhe ATLAS 5 CENTAUR DEB em tempo real com AllMySat

Download on the App Store